Regional Weather Roundup
Issued by NWS

Home | Current Version | Previous Version | Text Only | Print | Product List | Glossary Off
Versions: 1 2 3 4 5 6 7 8 9 10 11 12 13 14 15 16 17 18 19 20 21 22 23 24 25 26 27 28 29 30 31 32 33 34 35 36 37 38 39 40 41 42 43 44 45 46 47 48 49 50

000
ASUS43 KIND 020559
RWRIN

WEATHER ROUNDUP FOR INDIANA
NATIONAL WEATHER SERVICE INDIANAPOLIS IN
200 AM EDT MON MAY 02 2016

NOTE: "FAIR" INDICATES FEW OR NO CLOUDS BELOW 12,000 FEET WITH NO
SIGNIFICANT WEATHER AND/OR OBSTRUCTIONS TO VISIBILITY.

* - STATION DOES NOT REPORT WEATHER SUCH AS PRECIPITATION OR FOG.

+ - STATION NOT QUALITY CONTROLLED BY THE NATIONAL WEATHER SERVICE.
    USE DATA WITH CAUTION...ESPECIALLY DEWPOINT AND RELATIVE
    HUMIDITY OBSERVATIONS.

INZ001>003-010>013-019-020-020700-
NORTHWEST INDIANA

CITY           SKY/WX    TMP DP  RH WIND       PRES   REMARKS
RENSSELAER +   CLOUDY    50  50 100 NW3       29.96R FOG

$$

LMZ046-743>745-020700-
SOUTHERN LAKE MICHIGAN

STATION/POSITION TIME  TEMP    WIND        PRES    WAVE
                       AIR SEA DIR/SP/G            HT
                 (UTC) (F)     (DEG/KT/KT) (MB)    (FT)
BURNS HARBOR     0520   48      60/ 17/ 19 1014.6F
MICHIGAN CITY    0500   47      20/ 17/ 19   N/A

$$

INZ004-005-014>016-021>024-020700-
NORTH CENTRAL INDIANA

CITY           SKY/WX    TMP DP  RH WIND       PRES   REMARKS
GOSHEN         LGT RAIN  49  46  90 NE12      29.95F
6HR MIN TEMP:  49; 6HR MAX TEMP:  53; 6HR PCP:  0.30;

SOUTH BEND     CLOUDY    46  45  96 NE6       29.96R
6HR MIN TEMP:  46; 6HR MAX TEMP:  52; 6HR PCP:  0.10;


$$

INZ006>009-017-018-025>027-020700-
NORTHEAST INDIANA

CITY           SKY/WX    TMP DP  RH WIND       PRES   REMARKS
ANGOLA *+      CLOUDY    48  37  66 N7        29.98R
FORT WAYNE     LGT RAIN  51  49  92 E9        29.94F FOG
6HR MIN TEMP:  51; 6HR MAX TEMP:  56; 6HR PCP:  0.26;


$$

INZ028-029-035-036-043>045-051>053-020700-
WEST CENTRAL INDIANA

CITY           SKY/WX    TMP DP  RH WIND       PRES   REMARKS
LAFAYETTE      CLOUDY    52  51  97 W8        29.93S FOG
6HR MIN TEMP:  52; 6HR MAX TEMP:  60; 6HR PCP:  0.03;

TERRE HAUTE    MOCLDY    57  53  86 NW5       29.96R
6HR MIN TEMP:  57; 6HR MAX TEMP:  72;


$$

INZ030>032-037>040-046>048-054>057-064-065-020700-
CENTRAL INDIANA

CITY           SKY/WX    TMP DP  RH WIND       PRES   REMARKS
INDIANAPOLIS   CLOUDY    59  56  89 W8        29.91S
6HR MIN TEMP:  55; 6HR MAX TEMP:  73; 6HR PCP:  1.21;

-EAGLE CREEK   CLOUDY    60  58  92 W8        29.92R
6HR MIN TEMP:  60; 6HR MAX TEMP:  72; 6HR PCP:  0.09;

KOKOMO *+      CLOUDY    54  50  87 E12       29.92F
6HR MIN TEMP:  54; 6HR MAX TEMP:  63; 6HR PCP:  0.23;

SHELBYVILLE    CLOUDY    63  58  83 W7        29.90S
6HR MIN TEMP:  62; 6HR MAX TEMP:  76; 6HR PCP:  0.33;


$$

INZ033-034-041-042-049-050-058-059-020700-
EAST CENTRAL INDIANA

CITY           SKY/WX    TMP DP  RH WIND       PRES   REMARKS
MUNCIE         CLOUDY    56  52  86 NE5       29.93R
6HR MIN TEMP:  56; 6HR MAX TEMP:  69; 6HR PCP:  0.38;


$$

INZ060-061-067>069-081>083-085>088-020700-
SOUTHWEST INDIANA

CITY           SKY/WX    TMP DP  RH WIND       PRES   REMARKS
EVANSVILLE     PTCLDY    60  51  72 NW6       29.97R
6HR MIN TEMP:  60; 6HR MAX TEMP:  75;

HUNTINGBURG *+ PTCLDY    61  52  72 NW6       29.96R
6HR MIN TEMP:  61; 6HR MAX TEMP:  73;


$$

INZ062-063-066-070>080-084-089>092-020700-
SOUTH CENTRAL AND SOUTHEAST INDIANA

CITY           SKY/WX    TMP DP  RH WIND       PRES   REMARKS
BLOOMINGTON    MOCLDY    60  56  86 NW7       29.93S
6HR MIN TEMP:  60; 6HR MAX TEMP:  70; 6HR PCP:  0.33;

MADISON *+     CLOUDY    63  59  88 W8        29.93R

$$





USA.gov is the U.S. government's official web portal to all federal, state and local government web resources and services.